Hourly Data Report for September 23, 2017

All times are specified in Local Standard Time (LST). Add 1 hour to adjust for Daylight Saving Time where and when it is observed.

EDMUNDSTON
NEW BRUNSWICK

47°25'00.000" N
68°19'28.040" W
154.20 m
8101303
71590
ERM

Download Data

Hourly Data (September 2017)
Hourly Data Report for September 23, 2017
Temp Definition
°C
Dew Point Temp Definition
°C
Rel Hum Definition
%
Wind Dir Definition
10's deg

Wind Spd Definition
km/h
Visibility Definition
km
Stn Press Definition
kPa
Hmdx Definition


Wind Chill Definition


Weather Definition


TIME
00:00 7.5 6.6 94   0   99.93     LegendNANA
01:00 7.0 6.1 94 2 3   99.90     LegendNANA
02:00 6.8 6.0 95   0   99.87     LegendNANA
03:00 6.6 5.9 95   0   99.79     LegendNANA
04:00 6.1 5.3 95 33 1   99.74     LegendNANA
05:00 7.1 6.4 96   0   99.70     LegendNANA
06:00 9.2 8.5 96 10 6   99.58     LegendNANA
07:00 8.3 7.5 95 2 2   99.66     LegendNANA
08:00 10.4 9.1 91 0 1   99.65     LegendNANA
09:00 14.8 10.5 75 14 3   99.65     LegendNANA
10:00 19.5 11.0 58 6 3   99.68     LegendNANA
11:00 21.7 12.6 56 12 2   99.66     LegendNANA
12:00 24.3 15.0 56 28 4   99.65 28   LegendNANA
13:00 25.9 17.0 58 31 12   99.61 31   LegendNANA
14:00 26.4 16.6 55 30 13   99.61 31   LegendNANA
15:00 27.2 16.3 51 31 11   99.58 32   LegendNANA
16:00 26.8 15.0 48 29 13   99.58 31   LegendNANA
17:00 26.1 15.0 51 30 9   99.61 30   LegendNANA
18:00 21.3 14.9 67 0 1   99.68 25   LegendNANA
19:00 17.1 14.3 83 34 3   99.71     LegendNANA
20:00 15.2 13.3 88 33 3   99.77     LegendNANA
21:00 13.5 12.1 91 36 3   99.78     LegendNANA
22:00 13.5 12.5 94 33 3   99.80     LegendNANA
23:00 13.3 12.0 92 14 6   99.82     LegendNANA

Notes on Data Quality.

Legend

  • E = Estimated
  • M = Missing
  • NA = Not Available
  • ‡ = Partner data that is not subject to review by the National Climate Archives
Date modified: